Fort Eustis, VA

9:40 PM EST on February 25, 2017 (GMT -0500)
Felker Army Air Field

Weather History for KFAF - May, 2013

Change the Weather History Date:

Sunday, May 26, 2013

  Actual Average Record
Temperature  
Mean Temperature 62 °F -  
Max Temperature 71 °F 76 °F 89 °F (2004)
Min Temperature 54 °F 59 °F 53 °F (2005)
Degree Days  
Heating Degree Days 2    
Growing Degree Days 12 (Base 50)    
Moisture  
Dew Point 41 °F    
Average Humidity 47    
Maximum Humidity 76    
Minimum Humidity 30    
Precipitation  
Precipitation 0.00 in - - ()
Sea Level Pressure  
Sea Level Pressure 30.20 in    
Wind  
Wind Speed 6 mph (NW)    
Max Wind Speed 10 mph    
Max Gust Speed -    
Visibility 10 miles    
Events      
Averages and records for this station are not official NWS values.
T = Trace of Precipitation, MM = Missing Value Source: NWS Daily Summary

Daily Weather History Graph

Daily Weather History Graph

Search for Another Location

Airport or City:

Trip Planner

Search our weather history database for the weather conditions in past years. The results will help you decide how hot, cold, wet, or windy it might be!

Date:

Astronomy

May. 26, 2013 Rise Set
Actual Time 5:50 AM EDT 8:16 PM EDT
Civil Twilight 5:20 AM EDT 8:46 PM EDT
Nautical Twilight 4:43 AM EDT 9:23 PM EDT
Astronomical Twilight 4:02 AM EDT 10:04 PM EDT
Moon 10:03 PM EDT 7:16 AM EDT
Length of Visible Light 15h 26m
Length of Day
14h 26m
Waning Gibbous, 97% of the Moon is Illuminated
May 26
Waning Gibbous
May 31
Last Quarter
Jun 8
New
Jun 16
First Quarter
Jun 23
Full

Hourly Weather History & Observations

Time (EDT) Temp. Dew Point Humidity Pressure Visibility Wind Dir Wind Speed Gust Speed Precip Events Conditions
12:58 AM 55.2 °F 41.2 °F 59% 30.18 in 10.0 mi Variable 3.5 mph - 0.00 in   Light Drizzle
1:58 AM 55.9 °F 44.8 °F 66% 30.17 in 10.0 mi NW 3.5 mph - 0.00 in   Light Drizzle
2:58 AM 57.9 °F 41.4 °F 54% 30.17 in 10.0 mi NW 5.8 mph - 0.00 in   Light Drizzle
3:58 AM 57.4 °F 39.6 °F 51% 30.18 in 10.0 mi North 5.8 mph - 0.00 in   Light Drizzle
4:58 AM 55.8 °F 39.0 °F 53% 30.19 in 10.0 mi North 5.8 mph - 0.00 in   Light Drizzle
5:58 AM 54.3 °F 37.0 °F 52% 30.20 in 10.0 mi North 6.9 mph - 0.00 in   Light Drizzle
6:58 AM 55.8 °F 39.4 °F 54% 30.22 in 10.0 mi NNW 4.6 mph - 0.00 in   Light Drizzle
7:58 AM 57.2 °F 38.3 °F 49% 30.24 in 10.0 mi North 6.9 mph - 0.00 in   Light Drizzle
8:58 AM 59.7 °F 37.9 °F 44% 30.25 in 10.0 mi Variable 6.9 mph - 0.00 in   Light Drizzle
9:58 AM 61.9 °F 38.7 °F 42% 30.25 in 10.0 mi NW 8.1 mph - 0.00 in   Light Drizzle
10:58 AM 64.0 °F 37.6 °F 38% 30.24 in 10.0 mi West 10.4 mph - 0.00 in   Light Drizzle
11:58 AM 65.8 °F 41.0 °F 40% 30.23 in 10.0 mi WNW 8.1 mph - 0.00 in   Light Drizzle
12:58 PM 67.1 °F 38.5 °F 35% 30.21 in 10.0 mi WNW 8.1 mph - 0.00 in   Light Drizzle
1:58 PM 68.4 °F 39.2 °F 34% 30.20 in 10.0 mi Variable 6.9 mph - 0.00 in   Light Drizzle
2:31 PM 68.0 °F 37.4 °F 33% 30.17 in 10.0 mi WNW 10.4 mph - N/A   Clear
2:58 PM 70.0 °F 36.7 °F 30% 30.17 in 10.0 mi NW 10.4 mph - 0.00 in   Clear
3:58 PM 70.9 °F 39.0 °F 31% 30.17 in 10.0 mi NW 10.4 mph - N/A   Clear
4:58 PM 71.4 °F 41.2 °F 33% 30.16 in 10.0 mi NW 10.4 mph - N/A   Clear
5:58 PM 71.4 °F 40.5 °F 33% 30.16 in 10.0 mi NW 9.2 mph - N/A   Clear
6:58 PM 70.3 °F 41.7 °F 35% 30.17 in 10.0 mi NW 5.8 mph - N/A   Clear
7:58 PM 68.2 °F 45.3 °F 44% 30.18 in 10.0 mi WSW 2.3 mph - N/A   Clear
8:58 PM 60.6 °F 46.4 °F 59% 30.19 in 10.0 mi SE 2.3 mph - N/A   Clear
9:58 PM 57.2 °F 46.6 °F 68% 30.21 in 10.0 mi East 1.2 mph - N/A   Clear
10:58 PM 56.7 °F 48.6 °F 74% 30.21 in 10.0 mi East 2.3 mph - N/A   Clear
11:58 PM 57.6 °F 50.2 °F 76% 30.23 in 10.0 mi Calm Calm - N/A   Clear